2020-068W

Last updated on Thu Oct 29 2020 00:02:02 GMT+0000 (Coordinated Universal Time)

1 46506U 20068W 20302.26348505 -.00000056 00000-0 32602-6 0 9998 2 46506 97.6650 235.4066 0011821 148.1995 211.9943 15.01760305 4395
UTC large
Height (km)
Speed (km/s)
/
Latitude / Longitude
Inclination (degrees)
Orbital Period (minutes)
Azimuth
Elevation
Range (km)
Doppler Factor

Next 0 passes for location: London (51.5072 / 0.1276)

Sorry there are no passes over London.